H1 CPF 2 NER 2020 11 24 9 329 01 glonass134 H2 1407501 9134 40315 2020 11 24 0 0 0 2020 11 27 23 45 0 900 1 1 0 0 0 1 H9 10 0 59177 0.00000 0 5259052.171 -10091878.342 22843906.529 10 0 59177 900.00000 0 7940934.141 -9342195.203 22377352.318 10 0 59177 1800.00000 0 10587522.326 -8801425.910 21476647.354 10 0 59177 2700.00000 0 13131258.379 -8468557.299 20158992.752 10 0 59177 3600.00000 0 15506982.999 -8330714.752 18449706.101 10 0 59177 4500.00000 0 17654445.132 -8363832.385 16381752.310 10 0 59177 5400.00000 0 19520623.056 -8533810.837 13995122.865 10 0 59177 6300.00000 0 21061760.068 -8798115.266 11336073.740 10 0 59177 7200.00000 0 22245028.593 -9107746.949 8456235.428 10 0 59177 8100.00000 0 23049751.742 -9409505.428 5411611.587 10 0 59177 9000.00000 0 23468129.590 -9648445.040 2261485.455 10 0 59177 9900.00000 0 23505438.289 -9770420.736 -932744.096 10 0 59177 10800.00000 0 23179692.814 -9724613.602 -4108773.181 10 0 59177 11700.00000 0 22520787.015 -9465926.799 -7204625.113 10 0 59177 12600.00000 0 21569147.478 -8957147.939 -10159878.191 10 0 59177 13500.00000 0 20373958.786 -8170783.742 -12916863.144 10 0 59177 14400.00000 0 18991036.380 -7090486.947 -15421804.965 10 0 59177 15300.00000 0 17480438.479 -5712013.220 -17625885.066 10 0 59177 16200.00000 0 15903919.619 -4043666.182 -19486201.804 10 0 59177 17100.00000 0 14322334.782 -2106210.868 -20966609.900 10 0 59177 18000.00000 0 12793104.879 67741.029 -22038422.091 10 0 59177 18900.00000 0 11367850.989 2434848.218 -22680959.742 10 0 59177 19800.00000 0 10090296.981 4942611.957 -22881942.482 10 0 59177 20700.00000 0 8994528.054 7531336.804 -22637710.428 10 0 59177 21600.00000 0 8103677.022 10136397.523 -21953276.128 10 0 59177 22500.00000 0 7429091.562 12690717.184 -20842206.725 10 0 59177 23400.00000 0 6970015.088 15127352.975 -19326340.159 10 0 59177 24300.00000 0 6713792.019 17382082.392 -17435342.325 10 0 59177 25200.00000 0 6636586.215 19395882.883 -15206115.002 10 0 59177 26100.00000 0 6704579.953 21117202.848 -12682067.014 10 0 59177 27000.00000 0 6875600.937 22503931.033 -9912263.521 10 0 59177 27900.00000 0 7101107.264 23524984.182 -6950470.261 10 0 59177 28800.00000 0 7328445.709 24161448.752 -3854111.554 10 0 59177 29700.00000 0 7503287.739 24407231.203 -683162.057 10 0 59177 30600.00000 0 7572140.562 24269191.640 2501006.648 10 0 59177 31500.00000 0 7484827.879 23766756.875 5636802.867 10 0 59177 32400.00000 0 7196836.437 22931030.348 8663593.113 10 0 59177 33300.00000 0 6671430.313 21803436.812 11522860.225 10 0 59177 34200.00000 0 5881444.586 20433958.625 14159320.010 10 0 59177 35100.00000 0 4810683.268 18879036.958 16521976.133 10 0 59177 36000.00000 0 3454862.639 17199224.764 18565094.220 10 0 59177 36900.00000 0 1822059.667 15456688.276 20249077.465 10 0 59177 37800.00000 0 -67354.607 13712659.907 21541227.915 10 0 59177 38700.00000 0 -2181296.014 12024947.283 22416379.458 10 0 59177 39600.00000 0 -4477040.699 10445601.050 22857390.590 10 0 59177 40500.00000 0 -6902749.222 9018837.602 22855487.348 10 0 59177 41400.00000 0 -9399380.864 7779302.770 22410449.186 10 0 59177 42300.00000 0 -11902921.293 6750748.797 21530633.076 10 0 59177 43200.00000 0 -14346833.496 5945180.179 20232833.883 10 0 59177 44100.00000 0 -16664632.029 5362504.810 18541981.865 10 0 59177 45000.00000 0 -18792474.571 4990706.102 16490681.162 10 0 59177 45900.00000 0 -20671663.407 4806529.973 14118596.269 10 0 59177 46800.00000 0 -22250952.210 4776658.894 11471696.588 10 0 59177 47700.00000 0 -23488560.685 4859324.323 8601372.365 10 0 59177 48600.00000 0 -24353811.444 5006289.835 5563438.351 10 0 59177 49500.00000 0 -24828318.696 5165120.812 2417044.243 10 0 59177 50400.00000 0 -24906677.186 5281643.760 -776486.377 10 0 59177 51300.00000 0 -24596620.995 5302489.548 -3954864.992 10 0 59177 52200.00000 0 -23918644.556 5177610.699 -7056069.942 10 0 59177 53100.00000 0 -22905101.444 4862663.660 -10019575.048 10 0 59177 54000.00000 0 -21598819.187 4321152.487 -12787549.173 10 0 59177 54900.00000 0 -20051289.372 3526240.696 -15306001.355 10 0 59177 55800.00000 0 -18320510.684 2462152.450 -17525847.375 10 0 59177 56700.00000 0 -16468577.379 1125102.159 -19403875.715 10 0 59177 57600.00000 0 -14559116.317 -476287.954 -20903593.270 10 0 59177 58500.00000 0 -12654681.826 -2321100.484 -21995934.065 10 0 59177 59400.00000 0 -10814218.849 -4376761.039 -22659817.484 10 0 59177 60300.00000 0 -9090701.225 -6600174.964 -22882545.951 10 0 59177 61200.00000 0 -7529043.890 -8939314.319 -22660035.451 10 0 59177 62100.00000 0 -6164375.443 -11335188.110 -21996875.817 10 0 59177 63000.00000 0 -5020741.677 -13724112.877 -20906221.155 10 0 59177 63900.00000 0 -4110292.188 -16040188.452 -19409514.028 10 0 59177 64800.00000 0 -3432981.388 -18217875.607 -17536050.218 10 0 59177 65700.00000 0 -2976793.618 -20194568.532 -15322393.665 10 0 59177 66600.00000 0 -2718480.130 -21913055.611 -12811654.021 10 0 59177 67500.00000 0 -2624774.386 -23323767.138 -10052641.501 10 0 59177 68400.00000 0 -2654032.426 -24386717.760 -7098915.852 10 0 59177 69300.00000 0 -2758227.726 -25073064.276 -4007748.092 10 0 59177 70200.00000 0 -2885215.473 -25366215.643 -839015.017 10 0 59177 71100.00000 0 -2981170.469 -25262450.602 2345952.538 10 0 59177 72000.00000 0 -2993095.975 -24771018.614 5485545.896 10 0 59177 72900.00000 0 -2871298.265 -23913721.183 8519057.302 10 0 59177 73800.00000 0 -2571723.253 -22723991.721 11387839.562 10 0 59177 74700.00000 0 -2058057.565 -21245512.688 14036425.155 10 0 59177 75600.00000 0 -1303506.151 -19530427.411 16413584.614 10 0 59177 76500.00000 0 -292171.887 -17637220.358 18473304.966 10 0 59177 77400.00000 0 980021.072 -15628353.088 20175670.522 10 0 59177 78300.00000 0 2504899.876 -13567752.856 21487630.082 10 0 59177 79200.00000 0 4262130.994 -11518256.797 22383636.488 10 0 59177 80100.00000 0 6219822.158 -9539116.585 22846146.493 10 0 59177 81000.00000 0 8335615.742 -7683665.993 22865971.234 10 0 59177 81900.00000 0 10558230.956 -5997247.432 22442469.948 10 0 59177 82800.00000 0 12829393.434 -4515483.307 21583582.077 10 0 59177 83700.00000 0 15086074.638 -3262964.108 20305695.686 10 0 59177 84600.00000 0 17262950.032 -2252408.337 18633352.869 10 0 59177 85500.00000 0 19294975.159 -1484330.142 16598795.887 10 0 59178 0.00000 0 21119973.053 -947229.438 14241360.920 10 0 59178 900.00000 0 22681124.808 -618297.544 11606728.985 10 0 59178 1800.00000 0 23929259.033 -464609.219 8746048.151 10 0 59178 2700.00000 0 24824841.707 -444751.732 5714941.982 10 0 59178 3600.00000 0 25339582.657 -510821.499 2572424.069 10 0 59178 4500.00000 0 25457588.134 -610703.628 -620260.092 10 0 59178 5400.00000 0 25176009.758 -690536.325 -3800840.289 10 0 59178 6300.00000 0 24505160.854 -697253.965 -6907252.867 10 0 59178 7200.00000 0 23468094.329 -581098.763 -9878870.102 10 0 59178 8100.00000 0 22099659.556 -297992.063 -12657701.767 10 0 59178 9000.00000 0 20445078.302 188337.725 -15189543.486 10 0 59178 9900.00000 0 18558100.584 904562.921 -17425047.671 10 0 59178 10800.00000 0 16498819.372 1866377.798 -19320694.886 10 0 59178 11700.00000 0 14331237.477 3077592.896 -20839645.865 10 0 59178 12600.00000 0 12120690.321 4529741.419 -21952457.270 10 0 59178 13500.00000 0 9931233.835 6202214.562 -22637647.562 10 0 59178 14400.00000 0 7823107.600 8062919.925 -22882102.707 10 0 59178 15300.00000 0 5850379.500 10069434.787 -22681314.952 10 0 59178 16200.00000 0 4058869.701 12170605.222 -22039451.463 10 0 59178 17100.00000 0 2484439.295 14308523.380 -20969252.970 10 0 59178 18000.00000 0 1151713.154 16420799.622 -19491765.940 10 0 59178 18900.00000 0 73287.770 18443034.225 -17635914.918 10 0 59178 19800.00000 0 -750545.712 20311385.481 -15437924.520 10 0 59178 20700.00000 0 -1331554.626 21965127.270 -12940603.365 10 0 59178 21600.00000 0 -1692807.396 23349090.179 -10192504.538 10 0 59178 22500.00000 0 -1867440.002 24415885.357 -7246979.307 10 0 59178 23400.00000 0 -1897000.247 25127819.560 -4161142.658 10 0 59178 24300.00000 0 -1829440.999 25458422.981 -994770.598 10 0 59178 25200.00000 0 -1716847.850 25393527.533 2190849.827 10 0 59178 26100.00000 0 -1612997.185 24931851.917 5334096.044 10 0 59178 27000.00000 0 -1570847.379 24085070.199 8374189.097 10 0 59178 27900.00000 0 -1640068.316 22877361.692 11252354.696 10 0 59178 28800.00000 0 -1864712.497 21344461.242 13912944.796 10 0 59178 29700.00000 0 -2281125.097 19532249.240 16304499.380 10 0 59178 30600.00000 0 -2916180.397 17494939.344 18380729.214 10 0 59178 31500.00000 0 -3785918.577 15292938.192 20101401.793 10 0 59178 32400.00000 0 -4894640.570 12990464.609 21433114.424 10 0 59178 33300.00000 0 -6234500.034 10653025.511 22349940.314 10 0 59178 34200.00000 0 -7785611.201 8344851.683 22833935.495 10 0 59178 35100.00000 0 -9516670.424 6126398.310 22875496.801 10 0 59178 36000.00000 0 -11386068.102 4052012.734 22473563.356 10 0 59178 36900.00000 0 -13343447.437 2167865.511 21635656.661 10 0 59178 37800.00000 0 -15331647.740 510230.343 20377757.014 10 0 59178 38700.00000 0 -17288953.737 -895815.473 18724016.829 10 0 59178 39600.00000 0 -19151558.796 -2037215.391 16706314.439 10 0 59178 40500.00000 0 -20856140.462 -2913247.618 14363655.054 10 0 59178 41400.00000 0 -22342440.962 -3535314.795 11741428.622 10 0 59178 42300.00000 0 -23555744.216 -3926217.371 8890537.687 10 0 59178 43200.00000 0 -24449144.300 -4118940.761 5866411.192 10 0 59178 44100.00000 0 -24985508.499 -4155007.322 2727923.123 10 0 59178 45000.00000 0 -25139050.179 -4082463.191 -463762.592 10 0 59178 45900.00000 0 -24896443.290 -3953586.237 -3646397.463 10 0 59178 46800.00000 0 -24257429.731 -3822413.749 -6757879.107 10 0 59178 47700.00000 0 -23234892.321 -3742196.708 -9737481.336 10 0 59178 48600.00000 0 -21854389.456 -3762890.925 -12527057.674 10 0 59178 49500.00000 0 -20153170.716 -3928793.814 -15072192.883 10 0 59178 50400.00000 0 -18178715.303 -4276429.248 -17323278.206 10 0 59178 51300.00000 0 -15986855.622 -4832771.995 -19236488.047 10 0 59178 52200.00000 0 -13639566.048 -5613888.360 -20774638.231 10 0 59178 53100.00000 0 -11202511.054 -6624051.362 -21907908.745 10 0 59178 54000.00000 0 -8742456.641 -7855368.156 -22614417.205 10 0 59178 54900.00000 0 -6324654.201 -9287935.271 -22880632.610 10 0 59178 55800.00000 0 -4010306.591 -10890514.578 -22701622.424 10 0 59178 56700.00000 0 -1854221.859 -12621700.790 -22081129.607 10 0 59178 57600.00000 0 97248.505 -14431530.666 -21031479.590 10 0 59178 58500.00000 0 1807902.439 -16263465.587 -19573320.518 10 0 59178 59400.00000 0 3252942.995 -18056663.873 -17735203.246 10 0 59178 60300.00000 0 4419747.235 -19748447.411 -15553010.477 10 0 59178 61200.00000 0 5308119.134 -21276859.391 -13069247.124 10 0 59178 62100.00000 0 5930019.056 -22583206.578 -10332206.457 10 0 59178 63000.00000 0 6308784.006 -23614480.578 -7395028.601 10 0 59178 63900.00000 0 6477873.871 -24325557.809 -4314669.921 10 0 59178 64800.00000 0 6479198.329 -24681087.470 -1150803.140 10 0 59178 65700.00000 0 6361096.177 -24656989.801 2035330.863 10 0 59178 66600.00000 0 6176052.824 -24241503.215 5182097.856 10 0 59178 67500.00000 0 5978252.255 -23435737.569 8228649.774 10 0 59178 68400.00000 0 5821066.215 -22253711.086 11116087.172 10 0 59178 69300.00000 0 5754585.678 -20721869.667 13788583.242 10 0 59178 70200.00000 0 5823297.703 -18878108.353 16194448.974 10 0 59178 71100.00000 0 6064004.685 -16770334.937 18287120.215 10 0 59178 72000.00000 0 6504072.962 -14454634.286 20026048.719 10 0 59178 72900.00000 0 7160084.299 -11993108.075 21377481.100 10 0 59178 73800.00000 0 8036947.373 -9451477.742 22315111.411 10 0 59178 74700.00000 0 9127507.632 -6896548.284 22820595.153 10 0 59178 75600.00000 0 10412673.635 -4393636.158 22883914.712 10 0 59178 76500.00000 0 11862056.884 -2004066.368 22503588.687 10 0 59178 77400.00000 0 13435100.947 217158.626 21686719.948 10 0 59178 78300.00000 0 15082655.395 2223422.184 20448880.097 10 0 59178 79200.00000 0 16748931.320 3978203.465 18813830.730 10 0 59178 80100.00000 0 18373758.744 5456362.686 16813084.916 10 0 59178 81000.00000 0 19895052.986 6644947.481 14485315.410 10 0 59178 81900.00000 0 21251387.472 7543485.956 11875619.245 10 0 59178 82800.00000 0 22384565.004 8163753.244 9034651.559 10 0 59178 83700.00000 0 23242078.648 8529020.786 6017644.556 10 0 59178 84600.00000 0 23779357.239 8672819.612 2883330.278 10 0 59178 85500.00000 0 23961698.915 8637269.953 -307211.425 10 0 59179 0.00000 0 23765809.119 8471048.526 -3491756.294 10 0 59179 900.00000 0 23180875.554 8227080.987 -6608165.969 10 0 59179 1800.00000 0 22209133.996 7960058.528 -9595618.311 10 0 59179 2700.00000 0 20865897.734 7723886.999 -12395813.017 10 0 59179 3600.00000 0 19179050.433 7569177.948 -14954126.214 10 0 59179 4500.00000 0 17188022.305 7540890.893 -17220689.952 10 0 59179 5400.00000 0 14942293.558 7676228.385 -19151374.207 10 0 59179 6300.00000 0 12499488.649 8002874.586 -20708651.366 10 0 59179 7200.00000 0 9923142.419 8537652.862 -21862325.981 10 0 59179 8100.00000 0 7280232.838 9285659.491 -22590115.830 10 0 59179 9000.00000 0 4638584.374 10239909.935 -22878073.696 10 0 59179 9900.00000 0 2064251.154 11381511.945 -22720842.727 10 0 59179 10800.00000 0 -381011.036 12680357.315 -22121741.824 10 0 59179 11700.00000 0 -2642079.130 14096302.103 -21092680.895 10 0 59179 12600.00000 0 -4672507.572 15580784.644 -19653909.141 10 0 59179 13500.00000 0 -6436200.284 17078812.474 -17833602.715 10 0 59179 14400.00000 0 -7908642.650 18531234.173 -15667300.993 10 0 59179 15300.00000 0 -9077644.892 19877200.478 -13197203.426 10 0 59179 16200.00000 0 -9943568.907 21056711.547 -10471341.404 10 0 59179 17100.00000 0 -10519032.056 22013144.059 -7542641.597 10 0 59179 18000.00000 0 -10828103.061 22695652.930 -4467899.233 10 0 59179 18900.00000 0 -10905026.081 23061348.023 -1306681.105 10 0 59179 19800.00000 0 -10792528.336 23077155.740 1879820.822 10 0 59179 20700.00000 0 -10539783.535 22721288.639 5029963.449 10 0 59179 21600.00000 0 -10200117.330 21984262.458 8082832.389 10 0 59179 22500.00000 0 -9828551.254 20869418.657 10979405.798 10 0 59179 23400.00000 0 -9479288.014 19392930.881 13663680.770 10 0 59179 24300.00000 0 -9203243.105 17583294.811 16083741.861 10 0 59179 25200.00000 0 -9045725.673 15480321.872 18192752.388 10 0 59179 26100.00000 0 -9044365.269 13133677.460 19949850.563 10 0 59179 27000.00000 0 -9227371.086 10601022.767 21320934.253 10 0 59179 27900.00000 0 -9612196.706 7945835.285 22279320.029 10 0 59179 28800.00000 0 -10204666.861 5234996.372 22806264.168 10 0 59179 29700.00000 0 -10998603.979 2536243.681 22891335.540 10 0 59179 30600.00000 0 -11975971.876 -84407.914 22532632.679 10 0 59179 31500.00000 0 -13107532.719 -2565171.479 21736839.793 10 0 59179 32400.00000 0 -14353992.212 -4850816.564 20519119.231 10 0 59179 33300.00000 0 -15667587.490 -6894725.022 18902840.655 10 0 59179 34200.00000 0 -16994053.393 -8660588.615 16919150.210 10 0 59179 35100.00000 0 -18274886.456 -10123677.377 14606386.049 10 0 59179 36000.00000 0 -19449812.737 -11271625.056 12009349.689 10 0 59179 36900.00000 0 -20459356.041 -12104697.842 9178445.903 10 0 59179 37800.00000 0 -21247398.108 -12635534.387 6168706.915 10 0 59179 38700.00000 0 -21763621.606 -12888367.406 3038719.413 10 0 59179 39600.00000 0 -21965731.110 -12897759.550 -150524.329 10 0 59179 40500.00000 0 -21821356.162 -12706907.291 -3336827.959 10 0 59179 41400.00000 0 -21309553.668 -12365585.511 -6458020.381 10 0 59179 42300.00000 0 -20421843.986 -11927821.241 -9453186.989 10 0 59179 43200.00000 0 -19162734.986 -11449396.997 -12263876.885 10 0 59179 44100.00000 0 -17549710.593 -10985291.672 -14835260.547 10 0 59179 45000.00000 0 -15612683.529 -10587169.594 -17117213.496 10 0 59179 45900.00000 0 -13392935.107 -10301026.092 -19065303.524 10 0 59179 46800.00000 0 -10941586.979 -10165090.847 -20641661.316 10 0 59179 47700.00000 0 -8317669.744 -10208078.810 -21815717.126 10 0 59179 48600.00000 0 -5585870.278 -10447863.042 -22564789.385 10 0 59179 49500.00000 0 -2814052.792 -10890625.418 -22874514.496 10 0 59179 50400.00000 0 -70657.954 -11530520.299 -22739110.505 10 0 59179 51300.00000 0 2577911.330 -12349864.296 -22161470.917 10 0 59179 52200.00000 0 5069808.840 -13319842.797 -21153088.309 10 0 59179 53100.00000 0 7350064.641 -14401702.098 -19733810.754 10 0 59179 54000.00000 0 9372610.379 -15548375.707 -17931437.227 10 0 59179 54900.00000 0 11101928.076 -16706475.381 -15781161.071 10 0 59179 55800.00000 0 12514256.182 -17818562.448 -13324873.398 10 0 59179 56700.00000 0 13598305.508 -18825603.669 -10610340.711 10 0 59179 57600.00000 0 14355458.066 -19669508.527 -7690273.138 10 0 59179 58500.00000 0 14799443.315 -20295641.800 -4621301.656 10 0 59179 59400.00000 0 14955507.913 -20655206.664 -1462884.026 10 0 59179 60300.00000 0 14859115.893 -20707399.199 1723839.691 10 0 59179 61200.00000 0 14554235.263 -20421244.863 4877220.377 10 0 59179 62100.00000 0 14091283.885 -19777040.837 7936279.939 10 0 59179 63000.00000 0 13524821.232 -18767344.404 10841876.470 10 0 59179 63900.00000 0 12911082.698 -17397466.307 13537832.981 10 0 59179 64800.00000 0 12305459.428 -15685448.254 15972009.240 10 0 59179 65700.00000 0 11760028.559 -13661524.726 18097297.316 10 0 59179 66600.00000 0 11321236.594 -11367090.319 19872522.771 10 0 59179 67500.00000 0 11027832.280 -8853213.803 21263235.241 10 0 59179 68400.00000 0 10909135.168 -6178758.494 22242373.955 10 0 59179 69300.00000 0 10983712.396 -3408184.669 22790795.756 10 0 59179 70200.00000 0 11258519.638 -609122.714 22897655.450 10 0 59179 71100.00000 0 11728543.334 2150184.727 22560630.663 10 0 59179 72000.00000 0 12376960.774 4803467.420 21785985.828 10 0 59179 72900.00000 0 13175813.329 7288933.438 20588472.688 10 0 59179 73800.00000 0 14087166.793 9551593.239 18991067.422 10 0 59179 74700.00000 0 15064712.265 11545305.611 17024547.535 10 0 59179 75600.00000 0 16055742.219 13234460.200 14726914.709 10 0 59179 76500.00000 0 17003419.967 14595225.783 12142672.905 10 0 59179 77400.00000 0 17849247.761 15616311.236 9321974.370 10 0 59179 78300.00000 0 18535629.352 16299206.310 6319649.046 10 0 59179 79200.00000 0 19008417.942 16657891.203 3194135.846 10 0 59179 80100.00000 0 19219340.458 16718026.760 6336.974 10 0 59179 81000.00000 0 19128193.568 16515659.377 -3181581.582 10 0 59179 81900.00000 0 18704716.235 16095495.894 -6307418.586 10 0 59179 82800.00000 0 17930057.225 15508822.518 -9310169.287 10 0 59179 83700.00000 0 16797773.293 14811157.463 -12131234.382 10 0 59179 84600.00000 0 15314314.018 14059738.624 -14715580.660 10 0 59179 85500.00000 0 13498971.619 13310954.731 -17012828.836 10 0 59180 0.00000 0 11383297.167 12617830.678 -18978245.948 10 0 59180 900.00000 0 9010007.277 12027675.346 -20573622.262 10 0 59180 1800.00000 0 6431428.507 11579991.661 -21768014.706 10 0 59180 2700.00000 0 3707544.029 11304739.388 -22538343.127 10 0 59180 3600.00000 0 903726.098 11221022.049 -22869828.094 10 0 59180 4500.00000 0 -1911750.712 11336253.984 -22756262.820 10 0 59180 5400.00000 0 -4670311.217 11645840.849 -22200115.369 10 0 59180 6300.00000 0 -7305687.991 12133385.614 -21212460.576 10 0 59180 7200.00000 0 -9756428.234 12771409.603 -19812744.588 10 0 59180 8100.00000 0 -11968195.973 13522556.503 -18028388.005 10 0 59180 9000.00000 0 -13895775.511 14341227.134 -15894236.582 10 0 59180 9900.00000 0 -15504694.771 15175574.921 -13451871.232 10 0 59180 10800.00000 0 -16772403.511 15969777.337 -10748791.477 10 0 59180 11700.00000 0 -17688959.964 16666487.308 -7837488.648 10 0 59180 12600.00000 0 -18257199.955 17209361.542 -4774427.115 10 0 59180 13500.00000 0 -18492384.008 17545559.831 -1618953.206 10 0 59180 14400.00000 0 -18421339.457 17628110.938 1567847.357 10 0 59180 15300.00000 0 -18081135.201 17418046.446 4724321.870 10 0 59180 16200.00000 0 -17517345.882 16886213.805 7789430.979 10 0 59180 17100.00000 0 -16781978.834 16014693.108 10703915.139 10 0 59180 18000.00000 0 -15931150.777 14797758.599 13411425.682 10 0 59180 18900.00000 0 -15022611.207 13242344.549 15859599.940 10 0 59180 19800.00000 0 -14113215.481 11367995.399 18001060.982 10 0 59180 20700.00000 0 -13256452.470 9206301.101 19794323.822 10 0 59180 21600.00000 0 -12500129.319 6799839.461 21204591.764 10 0 59180 22500.00000 0 -11884309.367 4200667.280 22204428.332 10 0 59180 23400.00000 0 -11439589.078 1468420.560 22774292.257 10 0 59180 24300.00000 0 -11185785.989 -1331900.041 22902925.253 10 0 59180 25200.00000 0 -11131093.123 -4132369.239 22587584.596 10 0 59180 26100.00000 0 -11271736.230 -6864703.727 21834115.067 10 0 59180 27000.00000 0 -11592149.724 -9462850.786 20656857.471 10 0 59180 27900.00000 0 -12065665.656 -11865492.845 19078393.693 10 0 59180 28800.00000 0 -12655688.717 -14018364.506 17129131.315 10 0 59180 29700.00000 0 -13317309.634 -15876285.715 14846733.809 10 0 59180 30600.00000 0 -13999290.490 -17404825.838 12275405.467 10 0 59180 31500.00000 0 -14646339.225 -18581528.170 9465043.526 10 0 59180 32400.00000 0 -15201577.491 -19396642.509 6470272.871 10 0 59180 33300.00000 0 -15609097.145 -19853333.982 3349381.668 10 0 59180 34200.00000 0 -15816495.910 -19967358.393 163178.922 10 0 59180 35100.00000 0 -15777283.062 -19766217.363 -3026202.985 10 0 59180 36000.00000 0 -15453051.108 -19287829.069 -6156535.973 10 0 59180 36900.00000 0 -14815318.953 -18578771.331 -9166728.450 10 0 59180 37800.00000 0 -13846966.186 -17692172.594 -11998035.974 10 0 59180 38700.00000 0 -12543195.643 -16685341.670 -14595224.797 10 0 59180 39600.00000 0 -10911981.933 -15617238.402 -16907663.757 10 0 59180 40500.00000 0 -8973985.846 -14545894.155 -18890321.820 10 0 59180 41400.00000 0 -6761937.669 -13525892.851 -20504650.903 10 0 59180 42300.00000 0 -4319515.339 -12606020.272 -21719336.319 10 0 59180 43200.00000 0 -1699764.839 -11827181.539 -22510900.435 10 0 59180 44100.00000 0 1036870.441 -11220674.619 -22864148.436 10 0 59180 45000.00000 0 3824828.281 -10806892.014 -22772448.558 10 0 59180 45900.00000 0 6595918.568 -10594504.050 -22237842.704 10 0 59180 46800.00000 0 9281922.555 -10580156.423 -21270986.757 10 0 59180 47700.00000 0 11817192.346 -10748692.728 -19890923.285 10 0 59180 48600.00000 0 14141143.134 -11073890.459 -18124692.483 10 0 59180 49500.00000 0 16200535.750 -11519677.490 -16006790.158 10 0 59180 50400.00000 0 17951456.141 -12041776.054 -13578484.342 10 0 59180 51300.00000 0 19360911.515 -12589703.632 -10887004.614 10 0 59180 52200.00000 0 20407979.033 -13109045.581 -7984620.299 10 0 59180 53100.00000 0 21084461.612 -13543903.398 -4927625.759 10 0 59180 54000.00000 0 21395025.925 -13839415.513 -1775252.384 10 0 59180 54900.00000 0 21356819.109 -13944244.913 1411471.968 10 0 59180 55800.00000 0 20998581.999 -13812929.547 4570894.413 10 0 59180 56700.00000 0 20359297.438 -13407997.395 7641917.529 10 0 59180 57600.00000 0 19486431.017 -12701757.985 10565167.010 10 0 59180 58500.00000 0 18433838.155 -11677695.630 13284124.991 10 0 59180 59400.00000 0 17259424.856 -10331406.035 15746208.408 10 0 59180 60300.00000 0 16022659.286 -8671036.585 17903772.911 10 0 59180 61200.00000 0 14782037.269 -6717210.986 19715024.090 10 0 59180 62100.00000 0 13592606.508 -4502439.787 21144819.601 10 0 59180 63000.00000 0 12503651.897 -2070039.227 22165347.533 10 0 59180 63900.00000 0 11556637.759 527399.072 22756668.384 10 0 59180 64800.00000 0 10783492.456 3229926.735 22907110.267 10 0 59180 65700.00000 0 10205306.983 5972468.779 22613509.270 10 0 59180 66600.00000 0 9831502.398 8687275.221 21881289.354 10 0 59180 67500.00000 0 9659501.825 11306494.706 20724378.914 10 0 59180 68400.00000 0 9674922.065 13764764.987 19164963.815 10 0 59180 69300.00000 0 9852278.287 16001713.574 17233079.755 10 0 59180 70200.00000 0 10156173.733 17964264.797 14966049.827 10 0 59180 71100.00000 0 10542925.730 19608656.906 12407776.300 10 0 59180 72000.00000 0 10962560.480 20902083.984 9607898.896 10 0 59180 72900.00000 0 11361092.782 21823892.803 6620834.821 10 0 59180 73800.00000 0 11682994.069 22366283.108 3504718.759 10 0 59180 74700.00000 0 11873743.312 22534480.588 320263.716 10 0 59180 75600.00000 0 11882351.176 22346374.470 -2870434.287 10 0 59180 76500.00000 0 11663748.311 21831634.577 -6005123.014 10 0 59180 77400.00000 0 11180934.218 21030345.307 -9022626.562 10 0 59180 78300.00000 0 10406793.130 19991215.027 -11864057.630 10 0 59180 79200.00000 0 9325497.645 18769437.798 -14473983.944 10 0 59180 80100.00000 0 7933438.799 17424299.468 -16801524.183 10 0 59180 81000.00000 0 6239641.797 16016631.061 -18801350.621 10 0 59180 81900.00000 0 4265648.858 14606218.670 -20434578.019 10 0 59180 82800.00000 0 2044873.791 13249280.543 -21669520.921 10 0 59180 83700.00000 0 -378544.579 11996118.586 -22482304.797 10 0 59180 84600.00000 0 -2951341.660 10889043.396 -22857319.779 10 0 59180 85500.00000 0 -5613111.455 9960659.736 -22787509.137 99